Погода Огурцово

Погода Огурцово : погода сейчас, прогноз погоды и архив. Всё, что Вы хотите узнать о погоде Огурцово!

Хотите узнать прогноз погоды Огурцово? Тогда Вам сюда: Погода Огурцово

Поиск расширенной информации на нашем сайте:

Другие новости

Новости СМИ2

Главная страница сайта

Новости сайта

03.07.2017

Напоминаем, что на нашем специализированном сайте Метеоцентр.Азия вы можете получить высокодетализированные автоматические прогнозы погоды по пунктам России, СНГ и мира в авиационном формате (включающие направление и скорость ветра, видимость, явления погоды, количество и форму облачности, нижнюю и верхнюю границу облачности).


Погода Огурцово - сегодня

Время (UTC), дата Ветер
(°,м/с) 
Видим.   Явления Облачность Т
(°С)
Тd
(°С)
f(%) Тe
(°С)
Pmin
(гПа)
dP
(гПа)
Po
(мм)
O2
(г/м3)
Тmin Tmax R s Состояние
почвы
06 20.02.18 180 (Ю) 25000 м  {ливн. осадки}  9/0 средняя, верхняя 
[Ac trans|Ci fib]
-9.6 -14.1 70 -11  1036.5  764  320           
09 20.02.18 190 (Ю) 25000 м    8/0 средняя, верхняя 
[Ac trans|Ci fib]
-8.1 -13.2 67 -10  1035.7  -0.7  764  318           
12 20.02.18 190 (Ю) 20000 м    10/8 1000 м средняя 
[Sc|Ac As]
-8.5 -13.1 69 -10  1035  -0.8  763  319    -7.8  0.0     
15 20.02.18 200 (Ю) 20000 м    10/10 600 м кучево-дожд. 
[Cb cap]
-8 -12.5 70 -11  1033.6  -1.3  762  318           
18 20.02.18 200 (Ю) 20000 м    10/10 600 м кучево-дожд. 
[Cb cap]
-11.6 -15.1 75 -14  1032.7  -1.2  761  322           
21 20.02.18 170 (Ю) 20000 м    10/4 600 м верхняя 
[Sc|Ci fib]
-13.4 -16 81 -13  1031.5  -1.3  760  324           
00 21.02.18 170 (Ю) 20000 м    10/0 верхняя 
[Ci fib]
-16.4 -18.5 84 -17  1030.8  -0.9  760  327  -16.4      44  равномерный
сухой снег
100% 
06 21.02.18 150 (ЮВ) 9000 м  дымка  10/3 600 м средняя, верхняя 
[Sc|Ac trans|Cs]
-8.4 -11.6 78 -10  1028.1  -1.2  758  316           
09 21.02.18 150 (ЮВ) 12000 м    10/0 верхняя 
[Cs]
-5.9 -10.9 68 -7  1026.4  -1.5  757  313           
12 21.02.18 тихо ()   13000 м    10/0 верхняя 
[Cs]
-9.5 -13.6 72 -10  1024.6  -2.1  755  317    -5.2       
15 21.02.18 090 (В) 20000 м    10/0 верхняя 
[Cc]
-13.8 -15.9 84 -16  1022.5  -2.3  754  321           
18 21.02.18 020 (С) 20000 м    10/10 1000 м 
[Sc]
-10.3 -12.3 85 -10  1019.9  -2.3  752  316           
21 21.02.18 090 (В) 20000 м    10/10 600 м кучево-дожд. 
[Cb cap]
-8.2 -10.7 82 -8  1017.5  -2.3  750  313           
00 22.02.18 130 (ЮВ) 20000 м    10/8 600 м кучево-дожд., верхняя 
[Cb cap|Ci fib]
-4.2 -9.3 68 -7  1015.1  -2.1  749  307  -13.8      44  равномерный
сухой снег
100% 
03 22.02.18 150 (ЮВ) 18000 м    10/10 1000 м 
[Sc]
-4.9 -9.8 68 -9  1014.4  -0.7  748  308           
06 22.02.18 170 (Ю) 1500 м  ливневой снег  10/10 600 м кучево-дожд. 
[Cb cap]
-4 -5.9 87 -8  1013.9  -0.4  748  306           
09 22.02.18 220 (ЮЗ) 6{10}  16000 м  слаб. ливневой снег  10/10 600 м кучево-дожд. 
[Cb cap]
-3.4 -6.2 81 -8  1015  1.1  749  306           
12 22.02.18 230 (ЮЗ) 5{13}  20000 м  позёмок{ливн. осадки}  8/8 600 м кучево-дожд. 
[Cb cap]
-8.3 -11.7 76 -13  1019.1  3.7  751  313    -2.9  0.6     
18 22.02.18 210 (ЮЗ) 20000 м    6/0 верхняя 
[Ci fib]
-14.2 -16.7 81 -18  1024.6  755  322           
21 22.02.18 180 (Ю) 20000 м    10/0 верхняя 
[Ci fib]
-15.1 -17.1 85 -19  1025.5  0.8  756  324           
00 23.02.18 150 (ЮВ) 20000 м    10/0 верхняя 
[Ci fib]
-16.3 -18.3 84 -19  1025.5  0.1  756  325  -17.9      43  равномерный
сухой снег
100% 
03 23.02.18 150 (ЮВ) 13000 м    10/10 1000 м 
[Sc]
-13.7 -15.7 85 -17  1024.5  -0.8  755  322           
06 23.02.18 170 (Ю) 2100 м  ливневой снег  10/10 600 м кучево-дожд. 
[Cb cap]
-10.1 -12.2 85 -15  1023  -1.2  754  317           
12 23.02.18 210 (ЮЗ) 11000 м  {ливн. осадки}  8/4 1000 м средняя, верхняя 
[Sc|Ac trans|Ci fib]
-11.3 -14.6 77 -14  1023.1  0.4  754  318    -8.7  0.5     
15 23.02.18 210 (ЮЗ) 20000 м    8/0 верхняя 
[Ci fib]
-12.5 -15.4 79 -16  1023.4  0.2  754  320           
Время (UTC), дата Ветер
(°,м/с) 
Видим.   Явления Облачность Т
(°С)
Тd
(°С)
f(%) Тe
(°С)
Pmin
(гПа)
dP
(гПа)
Po
(мм)
O2
(г/м3)
Тmin Tmax R s Состояние
почвы

Для получения пояснительной информации подведите курсор к названию столбца.

ПОГОДА Огурцово - архив

Всё, что Вы хотите узнать о погоде Огурцово - удобно и подробно!

Выберите нужную дату (начиная с 1 января 2015* года) и нажмите кнопку "Найти".
Будут отображены архивные сводки погоды по пункту Огурцово, начиная с указанной даты.


Отображать данные в формате CSV (для использования в таблицах Excel)


Внимание! Наш архив погоды предназначен исключительно для личного некоммерческого использования в познавательных целях. Если Вам необходимы официальные справки о состоянии погоды (для производственных, юридических, коммерческих и т.п. целей), обращайтесь в органы Росгидромета.

*Примечание: данная дата относится к архиву по метеостанциям СССР (Россия, СНГ, Балтия).
Архив по метеостанциям Зарубежной Европы и Азии (кроме Китая) хранится 10 дней, по другим регионам земного шара (Китай, Африка, Америка, Австралия, Океания) - 1 день.

Огурцово - район местоположения метеостанции


Название, широта, долгота, высота метеостанции:
Огурцово 54.9°ш. 82.9°д. 133 м над ур. моря [Российская Федерация]

Дополнительная информация

В oтличие oт бoльшинства пoгoдных сайтoв мы публикуем пoдрoбную метеoинфoрмацию в детальнoм прoфессиoнальнoм фoрмате.

Характеристики температуры и влажнoсти вoздуха измеряются на высoте 2 м в тени вдали oт зданий и деревьев.
Скoрoсть ветра измеряется на высoте 10 м (на урoвне рoста челoвека скoрoсть ветра ниже в 1.5-2 раза). Если метеoстанция нахoдится в гoрoде или в лесу, тo скoрoсть ветра занижена на 2-4 м/с пo сравнению с oткрытым местoм. Скoрoсть ветра над акватoриями крупных рек и oзёр, а также на вершинах хoлмoв на 2-5 м/с выше, чем в oбычных услoвиях.
Атмoсфернoе давление в разных тoчках местнoсти мoжет значительнo oтличаться oт давления на метеoстанции, в зависимoсти oт услoвий рельефа (при пoдъёме на 10 м давление пoнижается примернo на 1 мм рт.ст.).